| time (UTC) | temp F | wind direction | speed MPH | gust MPH | rain 1hr in | rain 24hr in | rain mn in | humidity % | barometer mb |
| 20260905020012 | 53 | 349 | 0.0 | 2.0 | 0.00 | 0.43 | 0.43 | 96 | 995.2 |
| 20260905014510 | 53 | 335 | 0.0 | 1.0 | 0.00 | 0.43 | 0.43 | 96 | 995.2 |
| 20260905013009 | 53 | 354 | 0.0 | 1.0 | 0.00 | 0.43 | 0.43 | 96 | 995.1 |
| 20260905011509 | 52 | 360 | 0.0 | 2.0 | 0.00 | 0.43 | 0.43 | 96 | 995.0 |
| 20260905010008 | 52 | 342 | 0.0 | 1.0 | 0.00 | 0.43 | 0.43 | 96 | 994.9 |
| 20260905004511 | 52 | 347 | 0.0 | 2.0 | 0.00 | 0.43 | 0.43 | 96 | 994.9 |
| 20260905003011 | 52 | 343 | 0.0 | 3.0 | 0.00 | 0.43 | 0.43 | 96 | 994.8 |
| 20260905001507 | 52 | 342 | 1.0 | 2.0 | 0.00 | 0.43 | 0.43 | 96 | 994.8 |
| 20260905000005 | 52 | 348 | 0.0 | 1.0 | 0.00 | 0.43 | 0.43 | 96 | 994.7 |
| 20260904234504 | 53 | 341 | 0.0 | 2.0 | 0.00 | 0.43 | 0.43 | 96 | 994.8 |
| 20260904233023 | 52 | 351 | 1.0 | 3.0 | 0.00 | 0.43 | 0.43 | 96 | 994.8 |
| 20260904231508 | 52 | 355 | 0.0 | 3.0 | 0.00 | 0.43 | 0.43 | 96 | 994.8 |
| 20260904230014 | 53 | 344 | 0.0 | 2.0 | 0.00 | 0.43 | 0.43 | 96 | 994.8 |
| 20260904224503 | 53 | 18 | 0.0 | 1.0 | 0.00 | 0.43 | 0.43 | 96 | 994.8 |
| 20260904223101 | 53 | 10 | 1.0 | 3.0 | 0.00 | 0.43 | 0.43 | 96 | 994.8 |
| 20260904221559 | 53 | 345 | 0.0 | 4.0 | 0.00 | 0.43 | 0.43 | 96 | 994.8 |
| 20260904220108 | 53 | 354 | 0.0 | 4.0 | 0.00 | 0.43 | 0.43 | 96 | 994.7 |
| 20260904214558 | 52 | 323 | 0.0 | 0.0 | 0.00 | 0.00 | 0.43 | 96 | 994.6 |
| 20260904213057 | 52 | 71 | 0.0 | 1.0 | 0.01 | 0.43 | 0.43 | 96 | 994.6 |
| 20260904211558 | 52 | 82 | 0.0 | 2.0 | 0.03 | 0.43 | 0.43 | 96 | 994.5 |
| 20260904210059 | 51 | 88 | 0.0 | 3.0 | 0.05 | 0.43 | 0.43 | 96 | 994.5 |
| 20260904204553 | 51 | 53 | 0.0 | 1.0 | 0.06 | 0.43 | 0.43 | 96 | 994.5 |
| 20260904203053 | 51 | 76 | 0.0 | 1.0 | 0.09 | 0.42 | 0.42 | 96 | 994.7 |
| 20260904201611 | 51 | 73 | 0.0 | 2.0 | 0.08 | 0.40 | 0.40 | 95 | 994.7 |
| 20260904200052 | 51 | 70 | 0.0 | 4.0 | 0.07 | 0.38 | 0.38 | 95 | 994.8 |
| 20260904194552 | 51 | 72 | 0.0 | 2.0 | 0.06 | 0.37 | 0.37 | 95 | 994.8 |
| 20260904193052 | 51 | 45 | 0.0 | 5.0 | 0.05 | 0.34 | 0.34 | 95 | 994.9 |
| 20260904191650 | 51 | 65 | 0.0 | 3.0 | 0.09 | 0.32 | 0.32 | 95 | 994.9 |
| 20260904190048 | 52 | 132 | 0.0 | 1.0 | 0.12 | 0.31 | 0.31 | 95 | 994.9 |
| 20260904184547 | 52 | 161 | 0.0 | 1.0 | 0.13 | 0.31 | 0.31 | 95 | 995.0 |
| 20260904183050 | 52 | 94 | 0.0 | 0.0 | 0.13 | 0.30 | 0.30 | 94 | 995.1 |
| 20260904181545 | 52 | 127 | 0.0 | 3.0 | 0.09 | 0.26 | 0.26 | 94 | 995.2 |
| 20260904180056 | 52 | 105 | 0.0 | 0.0 | 0.02 | 0.20 | 0.20 | 93 | 995.3 |
| 20260904174546 | 52 | 106 | 0.0 | 0.0 | 0.01 | 0.18 | 0.18 | 93 | 995.4 |
| 20260904173105 | 52 | 104 | 0.0 | 0.0 | 0.00 | 0.17 | 0.17 | 93 | 995.3 |
| 20260904171552 | 52 | 129 | 0.0 | 0.0 | 0.00 | 0.17 | 0.17 | 93 | 995.2 |
| 20260904170043 | 52 | 128 | 0.0 | 1.0 | 0.02 | 0.17 | 0.17 | 93 | 995.2 |
| 20260904164539 | 52 | 131 | 0.0 | 0.0 | 0.06 | 0.17 | 0.17 | 93 | 995.4 |
| 20260904163042 | 52 | 131 | 0.0 | 0.0 | 0.09 | 0.17 | 0.17 | 93 | 995.5 |
| 20260904161535 | 52 | 132 | 0.0 | 0.0 | 0.10 | 0.17 | 0.17 | 92 | 995.6 |
| 20260904160036 | 52 | 133 | 0.0 | 0.0 | 0.12 | 0.16 | 0.16 | 92 | 995.4 |
| 20260904154530 | 52 | 145 | 0.0 | 0.0 | 0.09 | 0.12 | 0.12 | 91 | 995.8 |
| 20260904153034 | 53 | 149 | 0.0 | 0.0 | 0.06 | 0.09 | 0.09 | 90 | 996.1 |
| 20260904151525 | 54 | 150 | 0.0 | 0.0 | 0.06 | 0.07 | 0.07 | 90 | 996.3 |
| 20260904150036 | 55 | 182 | 0.0 | 0.0 | 0.04 | 0.05 | 0.05 | 89 | 996.3 |
| 20260904144518 | 56 | 198 | 0.0 | 1.0 | 0.03 | 0.03 | 0.03 | 89 | 996.4 |
| 20260904143029 | 56 | 133 | 0.0 | 1.0 | 0.02 | 0.02 | 0.02 | 88 | 996.5 |
| 20260904141516 | 57 | 167 | 0.0 | 0.0 | 0.02 | 0.02 | 0.02 | 85 | 996.4 |
| 20260904140012 | 58 | 167 | 0.0 | 0.0 | 0.01 | 0.01 | 0.01 | 83 | 996.5 |
| 20260904134507 | 60 | 156 | 1.0 | 5.0 | 0.00 | 0.00 | 0.00 | 77 | 996.7 |
| 20260904133007 | 61 | 53 | 0.0 | 1.0 | 0.00 | 0.00 | 0.00 | 72 | 996.6 |
| 20260904131506 | 62 | 41 | 0.0 | 0.0 | 0.00 | 0.00 | 0.00 | 72 | 996.8 |
| 20260904130004 | 62 | 41 | 0.0 | 1.0 | 0.00 | 0.00 | 0.00 | 72 | 996.9 |
| 20260904124502 | 62 | 41 | 0.0 | 0.0 | 0.00 | 0.00 | 0.00 | 72 | 997.1 |
| 20260904123001 | 61 | 85 | 0.0 | 1.0 | 0.00 | 0.00 | 0.00 | 70 | 997.2 |
| 20260904121600 | 61 | 123 | 0.0 | 0.0 | 0.00 | 0.00 | 0.00 | 73 | 997.3 |
| 20260904120105 | 62 | 128 | 0.0 | 0.0 | 0.00 | 0.00 | 0.00 | 72 | 997.5 |
| 20260904114553 | 62 | 128 | 0.0 | 0.0 | 0.00 | 0.00 | 0.00 | 67 | 997.6 |
| 20260904113055 | 63 | 123 | 0.0 | 0.0 | 0.00 | 0.00 | 0.00 | 67 | 997.8 |
| 20260904111600 | 62 | 70 | 0.0 | 2.0 | 0.00 | 0.00 | 0.00 | 68 | 997.9 |
| 20260904110051 | 61 | 341 | 0.0 | 0.0 | 0.00 | 0.00 | 0.00 | 75 | 998.1 |
| 20260904104555 | 60 | 345 | 0.0 | 1.0 | 0.00 | 0.00 | 0.00 | 75 | 998.2 |
| 20260904103047 | 60 | 360 | 0.0 | 2.0 | 0.00 | 0.00 | 0.00 | 77 | 998.3 |
| 20260904101548 | 60 | 340 | 0.0 | 1.0 | 0.00 | 0.00 | 0.00 | 77 | 998.4 |
| 20260904100045 | 59 | 354 | 0.0 | 0.0 | 0.00 | 0.00 | 0.00 | 79 | 998.6 |
| 20260904094549 | 59 | 349 | 0.0 | 1.0 | 0.00 | 0.00 | 0.00 | 81 | 998.7 |
| 20260904093042 | 58 | 352 | 0.0 | 0.0 | 0.00 | 0.00 | 0.00 | 81 | 998.8 |
| 20260904091540 | 58 | 348 | 0.0 | 0.0 | 0.00 | 0.00 | 0.00 | 82 | 999.0 |
| 20260904090039 | 57 | 348 | 0.0 | 0.0 | 0.00 | 0.00 | 0.00 | 82 | 999.0 |
| 20260904084539 | 57 | 281 | 0.0 | 0.0 | 0.00 | 0.00 | 0.00 | 83 | 998.9 |
| 20260904083037 | 57 | 281 | 0.0 | 0.0 | 0.00 | 0.00 | 0.00 | 83 | 999.2 |
| 20260904081536 | 57 | 276 | 0.0 | 1.0 | 0.00 | 0.00 | 0.00 | 84 | 999.2 |
| 20260904080039 | 56 | 266 | 0.0 | 1.0 | 0.00 | 0.00 | 0.00 | 85 | 999.3 |
| 20260904074558 | 56 | 278 | 0.0 | 2.0 | 0.00 | 0.00 | 0.00 | 85 | 999.4 |
| 20260904073046 | 56 | 264 | 0.0 | 1.0 | 0.00 | 0.00 | 0.00 | 87 | 999.4 |
| 20260904071539 | 54 | 211 | 0.0 | 0.0 | 0.00 | 0.00 | 0.00 | 88 | 999.4 |
| 20260904070034 | 54 | 217 | 0.0 | 0.0 | 0.00 | 0.00 | 0.00 | 89 | 999.5 |
| 20260904064534 | 53 | 217 | 0.0 | 0.0 | 0.00 | 0.00 | 0.00 | 91 | 999.6 |
| 20260904063034 | 53 | 217 | 0.0 | 0.0 | 0.00 | 0.00 | 0.00 | 93 | 999.7 |
| 20260904061532 | 52 | 201 | 0.0 | 0.0 | 0.00 | 0.00 | 0.00 | 94 | 999.9 |
| 20260904060030 | 52 | 203 | 0.0 | 0.0 | 0.00 | 0.00 | 0.00 | 95 | 999.8 |
| 20260904054529 | 50 | 200 | 0.0 | 0.0 | 0.00 | 0.00 | 0.00 | 95 | 999.8 |
| 20260904053036 | 49 | 200 | 0.0 | 0.0 | 0.00 | 0.00 | 0.00 | 95 | 999.9 |
| 20260904051535 | 0 | 0.0 | 0.0 | 0.00 | 0.00 | 0.00 | 999.9 | ||
| 20260904050032 | 0 | 0.0 | 0.0 | 0.00 | 0.00 | 0.00 | 1000.0 | ||
| 20260904044519 | 0 | 0.0 | 0.0 | 0.00 | 0.00 | 0.00 | 1000.0 | ||
| 20260904043015 | 0 | 0.0 | 0.0 | 0.00 | 0.00 | 0.00 | 1000.0 | ||
| 20260904041511 | 0 | 0.0 | 0.0 | 0.00 | 0.00 | 0.00 | 1000.0 | ||
| 20260904040007 | 0 | 0.0 | 0.0 | 0.00 | 0.00 | 0.00 | 1000.1 | ||
| 20260904034505 | 45 | 200 | 0.0 | 0.0 | 0.00 | 0.00 | 0.00 | 94 | 1000.4 |
| 20260904033006 | 45 | 200 | 0.0 | 0.0 | 0.00 | 0.00 | 0.00 | 94 | 1000.5 |
| 20260904031505 | 45 | 200 | 0.0 | 0.0 | 0.00 | 0.00 | 0.00 | 94 | 1000.4 |
| 20260904030004 | 44 | 200 | 0.0 | 0.0 | 0.00 | 0.00 | 0.00 | 93 | 1000.3 |
| 20260904024504 | 44 | 200 | 0.0 | 0.0 | 0.00 | 0.00 | 0.00 | 93 | 1000.3 |
| 20260904023004 | 44 | 200 | 0.0 | 0.0 | 0.00 | 0.00 | 0.00 | 93 | 1000.5 |
| 20260904021501 | 44 | 200 | 0.0 | 0.0 | 0.00 | 0.00 | 0.00 | 92 | 1000.7 |